STARLINK-37730, 69303

Orbit data source: Space-Track

STARLINK-37730, 69303 is a payload satellite owned by SpaceX/Seattle (US) in SSO that was launched on Sat, 30 May 2026 UTC via an FALCON 9 launch vehicle from the Air Force Western Test Range (AFWTR). Payload-class satellites include a variety of spacecraft equipped with specific instruments for various scientific and technological missions. These include communications satellites like Starlink; space stations such as the ISS; scientific satellites like the Hubble; Earth observation satellites from companies like Planet Labs, Umbra, and HawkEye 360; GPS; miniature CubeSats for education and research; and military/defense satellites.

Loading next visibility...
Identifier
69303, 2026-119H
Orbit
SSO
Country
Flag of USUS
Related business
Manufacturer
SpaceX/Seattle
Mission
Operational Commercial Communications
Bus & Motor
STARLINK V2MO, Unknown motor
Mass
575 kg wet, ~530 kg dry
Launch date (UTC)
2026-05-30 (4 months ago)
Launch vehicle
FALCON 9
Launch site
Air Force Western Test Range (AFWTR)
Object type
Payload
Rocket body
Debris
Shape & HBR
Box + 1 Pan, 17.7 m
Radar Cross Section
41.120 m², Large (>1 m²)

Expand to show TLE details & history
Last TLE update: 18 hours ago

TLE from 18 hours ago
0 STARLINK-37730
1 69303U 26119H   26263.57678373  .00011604  00000-0  36111-3 0  9992
2 69303  97.2827 288.2860 0000896  89.2838 270.8507 15.33453429 18673
Epoch: 2026-09-20T13:50Z
TLE epoch observation values (Epoch: 2026-09-20T13:50:34.114Z)
Latitude
-0.00005°
Longitude
81.17489°
Altitude
468.621 km
Speed
7.632 km/s
True Right ascension
19h 13m 08s
True Declination
0° 00' 00"
Sunlit
Object was in daylight at epoch
Visualization orbit readout
Latitude
Unknown
Longitude
Unknown
Altitude
Unknown
Speed
Unknown
Apparent Right ascension
Unknown
Apparent Declination
Unknown
Sunlit
N/A
Visualization observer readout
Local Sidereal Time
01:04:36
Azimuth
Unknown
Elevation
Unknown
Doppler factor
Unknown
Orbital elements
Apogee altitude
463.074 km
Perigee altitude
461.848 km
Semi-major axis
6,840.598 km
Eccentricity
0.00009
Inclination
97.2827°
RAAN
288.286°
Arg. of periapsis
89.2838°
True anomaly
270.84043°
Mean anomaly
270.8507°
Eccentric anomaly
270.84557°
Mean motion
3.83621 °/min
Orbital period
93.84 mins
BSTAR
0.00036111
Loading maneuver chart data...
Computing Atmospheric mass density...
Loading historical data...
Loading historical data...
Loading historical data...
Loading historical data...
Loading historical data...
Loading historical data...
Loading historical data...

Documentation

Showing up to 5 results
|